Weather History for Hoonah, AK

Change the Weather History Date:

Sunday, March 30, 2014

  Actual Average Record
Temperature  
Mean Temperature 34 °F -  
Max Temperature 47 °F 39 °F 48 °F (1999)
Min Temperature 20 °F 27 °F 19 °F (2002)
Degree Days  
Heating Degree Days 32    
Moisture  
Dew Point 20 °F    
Average Humidity 64    
Maximum Humidity 100    
Minimum Humidity 27    
Precipitation  
Precipitation 0.00 in - - ()
Sea Level Pressure  
Sea Level Pressure 29.89 in    
Wind  
Wind Speed 3 mph (East)    
Max Wind Speed 10 mph    
Max Gust Speed -    
Visibility 10 miles    
Events      
Averages and records for this station are not official NWS values.
T = Trace of Precipitation, MM = Missing Value Source: NWS Daily Summary

Daily Weather History Graph

Daily Weather History Graph

Search for Another Location

Airport:

Trip Planner

Search our weather history database for the weather conditions in past years. The results will help you decide how hot, cold, wet, or windy it might be!

Date:

Astronomy

Mar. 30, 2014 Rise Set
Actual Time 6:34 AM AKDT 7:38 PM AKDT
Civil Twilight 5:54 AM AKDT 8:19 PM AKDT
Nautical Twilight 5:05 AM AKDT 9:08 PM AKDT
Astronomical Twilight 4:10 AM AKDT 10:04 PM AKDT
Moon 6:24 AM AKDT (3/30) 8:08 PM AKDT (3/30)
Length of Visible Light 14h 24m
Length of Day
13h 04m
New Moon, 0% of the Moon is Illuminated
Mar 30
New Moon
Apr 7
First Quarter
Apr 14
Full
Apr 21
Last Quarter
Apr 28
New

Hourly Weather History & Observations

Time (AKDT) Temp. Windchill Dew Point Humidity Pressure Visibility Wind Dir Wind Speed Gust Speed Precip Events Conditions
12:56 AM 25.2 °F - 22.1 °F 88% 29.78 in 10.0 mi Calm Calm - N/A   Clear
1:56 AM 25.2 °F 20.9 °F 22.1 °F 88% 29.80 in 10.0 mi East 3.5 mph - N/A   Clear
2:56 AM 24.1 °F 18.2 °F 21.0 °F 88% 29.81 in 10.0 mi East 4.6 mph - N/A   Clear
3:56 AM 22.1 °F 17.4 °F 21.0 °F 96% 29.81 in 10.0 mi East 3.5 mph - N/A   Clear
4:56 AM 22.1 °F - 21.0 °F 96% 29.82 in 10.0 mi Calm Calm - N/A   Clear
5:56 AM 20.1 °F - 20.1 °F 100% 29.83 in 10.0 mi Calm Calm - N/A   Clear
6:56 AM 21.0 °F 14.6 °F 20.1 °F 96% 29.84 in 10.0 mi East 4.6 mph - N/A   Clear
7:56 AM 23.0 °F - 21.0 °F 92% 29.85 in 10.0 mi Calm Calm - N/A   Clear
8:56 AM 29.1 °F - 24.1 °F 81% 29.86 in 10.0 mi Calm Calm - N/A   Clear
9:56 AM 37.9 °F 35.5 °F 29.1 °F 71% 29.86 in 10.0 mi Variable 3.5 mph - N/A   Clear
10:56 AM 43.9 °F 39.9 °F 21.0 °F 40% 29.87 in 10.0 mi East 6.9 mph - N/A   Clear
11:56 AM 43.9 °F 39.9 °F 20.1 °F 39% 29.88 in 10.0 mi East 6.9 mph - N/A   Overcast
12:56 PM 45.9 °F 42.9 °F 17.1 °F 32% 29.89 in 10.0 mi ENE 5.8 mph - N/A   Mostly Cloudy
1:56 PM 46.9 °F - 16.2 °F 29% 29.90 in 10.0 mi East 10.4 mph - N/A   Clear
2:56 PM 47.8 °F - 15.1 °F 27% 29.90 in 10.0 mi East 6.9 mph - N/A   Clear
3:56 PM 46.9 °F - 15.1 °F 28% 29.91 in 10.0 mi East 6.9 mph - N/A   Scattered Clouds
4:56 PM 46.9 °F - 15.1 °F 28% 29.91 in 10.0 mi East 8.1 mph - N/A   Partly Cloudy
5:56 PM 47.8 °F - 15.1 °F 27% 29.93 in 10.0 mi East 6.9 mph - N/A   Overcast
6:56 PM 45.9 °F 43.6 °F 16.2 °F 30% 29.94 in 10.0 mi ENE 4.6 mph - N/A   Mostly Cloudy
7:56 PM 36.9 °F - 24.1 °F 60% 29.96 in 10.0 mi Calm Calm - N/A   Clear
8:56 PM 32.0 °F 27.5 °F 22.1 °F 67% 29.98 in 10.0 mi East 4.6 mph - N/A   Clear
9:56 PM 30.0 °F 25.2 °F 23.0 °F 75% 30.00 in 10.0 mi East 4.6 mph - N/A   Clear
10:56 PM 29.1 °F - 24.1 °F 81% 30.01 in 10.0 mi Calm Calm - N/A   Partly Cloudy
11:56 PM 27.1 °F - 23.0 °F 84% 30.04 in 10.0 mi Calm Calm - N/A   Partly Cloudy